,,Stat6,,Stat2,,Stat8,,Stat9,,Stat10,,Wind1,,Wind1,
time,status,PA1M_AVG,status,PR1M_SUM,status,RH1M_AVG,status,SR1M_AVG,status,TA1M_AVG,status,W1dAve1m,status,W1sAve1m,
Wed Dec 01 17:00:00 2004,VALID,918.203,VALID,0,VALID,100,VALID,0,VALID,19.578,VALID,40,VALID,0.096946,
Wed Dec 01 17:01:00 2004,VALID,918.206,VALID,0,VALID,100,VALID,0,VALID,19.585,VALID,40,VALID,0.0685369,
Wed Dec 01 17:02:00 2004,VALID,918.219,VALID,0,VALID,100,VALID,0.0509425,VALID,19.5624,VALID,39,VALID,0.320313,
Wed Dec 01 17:03:00 2004,VALID,918.228,VALID,0,VALID,100,VALID,0.0169808,VALID,19.5462,VALID,26,VALID,0.327744,
Wed Dec 01 17:04:00 2004,VALID,918.234,VALID,0,VALID,100,VALID,0.0339617,VALID,19.5328,VALID,1,VALID,0.446023,
Wed Dec 01 17:05:00 2004,VALID,918.23,VALID,0,VALID,100,VALID,0.0339617,VALID,19.5199,VALID,341,VALID,0.327398,
Wed Dec 01 17:06:00 2004,VALID,918.246,VALID,0,VALID,100,VALID,0.0509425,VALID,19.5224,VALID,341,VALID,0.180859,
Wed Dec 01 17:07:00 2004,VALID,918.238,VALID,0,VALID,100,VALID,0.0339617,VALID,19.5554,VALID,341,VALID,0.0141006,
Wed Dec 01 17:08:00 2004,VALID,918.243,VALID,0,VALID,100,VALID,0.0339617,VALID,19.5656,VALID,341,VALID,0.176669,
Wed Dec 01 17:09:00 2004,VALID,918.247,VALID,0,VALID,100,VALID,0.0169808,VALID,19.572,VALID,341,VALID,0.0470567,
Wed Dec 01 17:10:00 2004,VALID,918.263,VALID,0,VALID,100,VALID,0,VALID,19.5658,VALID,341,VALID,0,
Wed Dec 01 17:11:00 2004,VALID,918.268,VALID,0,VALID,100,VALID,0,VALID,19.5748,VALID,341,VALID,0,
Wed Dec 01 17:12:00 2004,VALID,918.297,VALID,0,VALID,100,VALID,0,VALID,19.5944,VALID,341,VALID,0,
Wed Dec 01 17:13:00 2004,VALID,918.303,VALID,0,VALID,100,VALID,0.0169808,VALID,19.6073,VALID,341,VALID,0,
Wed Dec 01 17:14:00 2004,VALID,918.313,VALID,0,VALID,100,VALID,0,VALID,19.5919,VALID,341,VALID,0.20484,
Wed Dec 01 17:15:00 2004,VALID,918.319,VALID,0,VALID,100,VALID,0.0339617,VALID,19.5651,VALID,341,VALID,0.367188,
Wed Dec 01 17:16:00 2004,VALID,918.34,VALID,0.2,VALID,100,VALID,0.0169808,VALID,19.5683,VALID,294,VALID,0.514101,
Wed Dec 01 17:17:00 2004,VALID,918.339,VALID,0,VALID,100,VALID,-0.0339617,VALID,19.5601,VALID,288,VALID,0.514323,
Wed Dec 01 17:18:00 2004,VALID,918.343,VALID,0,VALID,100,VALID,-0.0849042,VALID,19.5534,VALID,288,VALID,0.412157,
Wed Dec 01 17:19:00 2004,VALID,918.332,VALID,0,VALID,100,VALID,-0.0679233,VALID,19.5549,VALID,288,VALID,0.469271,
Wed Dec 01 17:20:00 2004,VALID,918.319,VALID,0,VALID,100,VALID,-0.101885,VALID,19.5514,VALID,275,VALID,0.506882,
Wed Dec 01 17:21:00 2004,VALID,918.32,VALID,0,VALID,100,VALID,-0.101885,VALID,19.5574,VALID,269,VALID,0.342862,
Wed Dec 01 17:22:00 2004,VALID,918.292,VALID,0,VALID,100,VALID,-0.0849042,VALID,19.5512,VALID,269,VALID,0.297408,
Wed Dec 01 17:23:00 2004,VALID,918.281,VALID,0,VALID,100,VALID,-0.0849042,VALID,19.5447,VALID,269,VALID,0.00486111,
Wed Dec 01 17:24:00 2004,VALID,918.261,VALID,0.2,VALID,100,VALID,-0.0679233,VALID,19.5604,VALID,269,VALID,0.0228795,
Wed Dec 01 17:25:00 2004,VALID,918.249,VALID,0,VALID,100,VALID,-0.101885,VALID,19.5768,VALID,269,VALID,0.0598958,
Wed Dec 01 17:26:00 2004,VALID,918.25,VALID,0,VALID,100,VALID,-0.101885,VALID,19.5964,VALID,286,VALID,0.248958,
Wed Dec 01 17:27:00 2004,VALID,918.241,VALID,0,VALID,100,VALID,-0.0679233,VALID,19.5442,VALID,289,VALID,0.114757,
Wed Dec 01 17:28:00 2004,VALID,918.232,VALID,0,VALID,100,VALID,-0.101885,VALID,19.5442,VALID,289,VALID,0,
Wed Dec 01 17:29:00 2004,VALID,918.229,VALID,0,VALID,100,VALID,-0.0679233,VALID,19.5636,VALID,289,VALID,0,
Wed Dec 01 17:30:00 2004,VALID,918.204,VALID,0,VALID,100,VALID,-0.0849042,VALID,19.5738,VALID,289,VALID,0,
Wed Dec 01 17:31:00 2004,VALID,918.188,VALID,0,VALID,100,VALID,-0.0849042,VALID,19.5763,VALID,289,VALID,0,
Wed Dec 01 17:32:00 2004,VALID,918.167,VALID,0,VALID,100,VALID,-0.0849042,VALID,19.6125,VALID,289,VALID,0,
Wed Dec 01 17:33:00 2004,VALID,918.136,VALID,0,VALID,100,VALID,-0.0849042,VALID,19.6023,VALID,289,VALID,0.217842,
Wed Dec 01 17:34:00 2004,VALID,918.124,VALID,0,VALID,100,VALID,-0.0849042,VALID,19.5733,VALID,289,VALID,0.464134,
Wed Dec 01 17:35:00 2004,VALID,918.105,VALID,0,VALID,100,VALID,-0.101885,VALID,19.5479,VALID,289,VALID,0.671094,
Wed Dec 01 17:36:00 2004,VALID,918.108,VALID,0,VALID,100,VALID,-0.101885,VALID,19.5087,VALID,80,VALID,0.813244,
Wed Dec 01 17:37:00 2004,VALID,918.098,VALID,0,VALID,100,VALID,-0.0849042,VALID,19.5064,VALID,110,VALID,0.865412,
Wed Dec 01 17:38:00 2004,VALID,918.098,VALID,0,VALID,100,VALID,-0.0849042,VALID,19.4896,VALID,110,VALID,0.624273,
Wed Dec 01 17:39:00 2004,VALID,918.113,VALID,0,VALID,100,VALID,-0.101885,VALID,19.4868,VALID,113,VALID,0.650799,
Wed Dec 01 17:40:00 2004,VALID,918.109,VALID,0,VALID,100,VALID,-0.0679233,VALID,19.4769,VALID,114,VALID,0.796007,
Wed Dec 01 17:41:00 2004,VALID,918.122,VALID,0,VALID,100,VALID,-0.118866,VALID,19.4806,VALID,116,VALID,0.580788,
Wed Dec 01 17:42:00 2004,VALID,918.135,VALID,0,VALID,100,VALID,-0.101885,VALID,19.4672,VALID,119,VALID,0.6375,
Wed Dec 01 17:43:00 2004,VALID,918.144,VALID,0,VALID,100,VALID,-0.101885,VALID,19.4575,VALID,119,VALID,0.3254,
Wed Dec 01 17:44:00 2004,VALID,918.147,VALID,0,VALID,100,VALID,-0.0849042,VALID,19.4637,VALID,119,VALID,0.177912,
Wed Dec 01 17:45:00 2004,VALID,918.154,VALID,0,VALID,100,VALID,-0.118866,VALID,19.4704,VALID,119,VALID,0.195131,
Wed Dec 01 17:46:00 2004,VALID,918.171,VALID,0,VALID,100,VALID,-0.101885,VALID,19.4833,VALID,119,VALID,0,
Wed Dec 01 17:47:00 2004,VALID,918.188,VALID,0,VALID,100,VALID,-0.0169808,VALID,19.4918,VALID,119,VALID,0,
Wed Dec 01 17:48:00 2004,VALID,918.195,VALID,0,VALID,100,VALID,0,VALID,19.4819,VALID,119,VALID,0,
Wed Dec 01 17:49:00 2004,VALID,918.207,VALID,0,VALID,100,VALID,0.0169808,VALID,19.4856,VALID,119,VALID,0.0328125,
Wed Dec 01 17:50:00 2004,VALID,918.202,VALID,0,VALID,100,VALID,0,VALID,19.4916,VALID,119,VALID,0,
Wed Dec 01 17:51:00 2004,VALID,918.201,VALID,0,VALID,100,VALID,0.0169808,VALID,19.5109,VALID,119,VALID,0,
Wed Dec 01 17:52:00 2004,VALID,918.199,VALID,0,VALID,100,VALID,0.0509425,VALID,19.5271,VALID,119,VALID,0.0789063,
Wed Dec 01 17:53:00 2004,VALID,918.198,VALID,0,VALID,100,VALID,0.0339617,VALID,19.5234,VALID,119,VALID,0,
Wed Dec 01 17:54:00 2004,VALID,918.179,VALID,0,VALID,100,VALID,-0.0169808,VALID,19.5343,VALID,119,VALID,0,
Wed Dec 01 17:55:00 2004,VALID,918.185,VALID,0,VALID,100,VALID,0,VALID,19.5271,VALID,119,VALID,0,
Wed Dec 01 17:56:00 2004,VALID,918.17,VALID,0,VALID,100,VALID,0.0339617,VALID,19.5333,VALID,119,VALID,0,
Wed Dec 01 17:57:00 2004,VALID,918.157,VALID,0,VALID,100,VALID,0.0169808,VALID,19.5236,VALID,119,VALID,0,
Wed Dec 01 17:58:00 2004,VALID,918.162,VALID,0,VALID,100,VALID,0.0339617,VALID,19.5432,VALID,119,VALID,0,
Wed Dec 01 17:59:00 2004,VALID,918.15,VALID,0,VALID,100,VALID,0,VALID,19.5368,VALID,119,VALID,0,
Wed Dec 01 18:00:00 2004,VALID,918.156,VALID,0,VALID,100,VALID,-0.0169808,VALID,19.5507,VALID,119,VALID,0,
Wed Dec 01 18:01:00 2004,VALID,918.156,VALID,0,VALID,100,VALID,0.0169808,VALID,19.5171,VALID,119,VALID,0,
Wed Dec 01 18:02:00 2004,VALID,918.152,VALID,0,VALID,100,VALID,-0.0509425,VALID,19.5315,VALID,119,VALID,0.105183,
Wed Dec 01 18:03:00 2004,VALID,918.149,VALID,0,VALID,100,VALID,-0.101885,VALID,19.5442,VALID,118,VALID,0.423242,
Wed Dec 01 18:04:00 2004,VALID,918.151,VALID,0,VALID,100,VALID,-0.0509425,VALID,19.5633,VALID,118,VALID,0.410252,
Wed Dec 01 18:05:00 2004,VALID,918.14,VALID,0,VALID,100,VALID,-0.0339617,VALID,19.5609,VALID,118,VALID,0.216388,
Wed Dec 01 18:06:00 2004,VALID,918.137,VALID,0.2,VALID,100,VALID,-0.0339617,VALID,19.5579,VALID,118,VALID,0.0137195,
Wed Dec 01 18:07:00 2004,VALID,918.113,VALID,0,VALID,100,VALID,-0.0849042,VALID,19.541,VALID,118,VALID,0,
Wed Dec 01 18:08:00 2004,VALID,918.098,VALID,0,VALID,100,VALID,-0.0339617,VALID,19.541,VALID,118,VALID,0.0223474,
Wed Dec 01 18:09:00 2004,VALID,918.074,VALID,0,VALID,100,VALID,-0.0509425,VALID,19.5246,VALID,118,VALID,0.0979421,
Wed Dec 01 18:10:00 2004,VALID,918.043,VALID,0,VALID,100,VALID,-0.0679233,VALID,19.5124,VALID,118,VALID,0.502096,
Wed Dec 01 18:11:00 2004,VALID,918.037,VALID,0,VALID,100,VALID,-0.0509425,VALID,19.4699,VALID,118,VALID,0.600419,
Wed Dec 01 18:12:00 2004,VALID,918.014,VALID,0,VALID,100,VALID,-0.0849042,VALID,19.4409,VALID,120,VALID,0.647294,
Wed Dec 01 18:13:00 2004,VALID,918.015,VALID,0,VALID,100,VALID,-0.0849042,VALID,19.412,VALID,125,VALID,0.761991,
Wed Dec 01 18:14:00 2004,VALID,918.006,VALID,0,VALID,100,VALID,-0.0169808,VALID,19.3959,VALID,127,VALID,0.734035,
Wed Dec 01 18:15:00 2004,VALID,917.994,VALID,0,VALID,100,VALID,-0.0679233,VALID,19.3793,VALID,126,VALID,0.552734,
Wed Dec 01 18:16:00 2004,VALID,917.996,VALID,0,VALID,100,VALID,-0.0679233,VALID,19.3564,VALID,125,VALID,0.804883,
Wed Dec 01 18:17:00 2004,VALID,917.991,VALID,0.2,VALID,100,VALID,-0.0339617,VALID,19.34,VALID,104,VALID,0.690278,
Wed Dec 01 18:18:00 2004,VALID,917.982,VALID,0,VALID,100,VALID,-0.0509425,VALID,19.3475,VALID,101,VALID,0.407965,
Wed Dec 01 18:19:00 2004,VALID,917.991,VALID,0,VALID,100,VALID,-0.0679233,VALID,19.3375,VALID,101,VALID,0.400724,
Wed Dec 01 18:20:00 2004,VALID,917.988,VALID,0,VALID,100,VALID,-0.0849042,VALID,19.3378,VALID,101,VALID,0.370617,
Wed Dec 01 18:21:00 2004,VALID,917.985,VALID,0,VALID,100,VALID,-0.0509425,VALID,19.3341,VALID,103,VALID,0.275645,
Wed Dec 01 18:22:00 2004,VALID,917.984,VALID,0,VALID,100,VALID,-0.0679233,VALID,19.3472,VALID,103,VALID,0.118712,
Wed Dec 01 18:23:00 2004,VALID,917.988,VALID,0,VALID,100,VALID,-0.0339617,VALID,19.3534,VALID,103,VALID,0.0948933,
Wed Dec 01 18:24:00 2004,VALID,917.981,VALID,0,VALID,100,VALID,-0.0509425,VALID,19.3537,VALID,148,VALID,0.509337,
Wed Dec 01 18:25:00 2004,VALID,917.985,VALID,0,VALID,100,VALID,-0.0339617,VALID,19.3636,VALID,152,VALID,0.415153,
Wed Dec 01 18:26:00 2004,VALID,917.993,VALID,0.2,VALID,100,VALID,-0.0679233,VALID,19.3638,VALID,169,VALID,0.584604,
Wed Dec 01 18:27:00 2004,VALID,917.979,VALID,0,VALID,100,VALID,-0.0679233,VALID,19.3698,VALID,167,VALID,0.195122,
Wed Dec 01 18:28:00 2004,VALID,917.971,VALID,0,VALID,100,VALID,-0.0679233,VALID,19.3827,VALID,168,VALID,0.121982,
Wed Dec 01 18:29:00 2004,VALID,917.966,VALID,0,VALID,100,VALID,-0.0679233,VALID,19.3867,VALID,177,VALID,0.214558,
Wed Dec 01 18:30:00 2004,VALID,917.954,VALID,0,VALID,100,VALID,-0.0339617,VALID,19.3899,VALID,197,VALID,0.407292,
Wed Dec 01 18:31:00 2004,VALID,917.931,VALID,0,VALID,100,VALID,-0.101885,VALID,19.377,VALID,188,VALID,0.327567,
Wed Dec 01 18:32:00 2004,VALID,917.917,VALID,0,VALID,100,VALID,-0.0339617,VALID,19.3659,VALID,169,VALID,0.53032,
Wed Dec 01 18:33:00 2004,VALID,917.9,VALID,0,VALID,100,VALID,0.0509425,VALID,19.3688,VALID,153,VALID,0.281068,
Wed Dec 01 18:34:00 2004,VALID,917.881,VALID,0,VALID,100,VALID,0.0169808,VALID,19.3589,VALID,152,VALID,0.736243,
Wed Dec 01 18:35:00 2004,VALID,917.863,VALID,0.2,VALID,100,VALID,0.0339617,VALID,19.3693,VALID,155,VALID,0.728198,
Wed Dec 01 18:36:00 2004,VALID,917.866,VALID,0,VALID,100,VALID,0.0169808,VALID,19.3624,VALID,150,VALID,0.94112,
Wed Dec 01 18:37:00 2004,VALID,917.856,VALID,0,VALID,100,VALID,0.0169808,VALID,19.3589,VALID,145,VALID,0.806212,
Wed Dec 01 18:38:00 2004,VALID,917.846,VALID,0,VALID,100,VALID,0.0509425,VALID,19.3617,VALID,137,VALID,0.6633,
Wed Dec 01 18:39:00 2004,VALID,917.851,VALID,0.2,VALID,100,VALID,0.0679233,VALID,19.3746,VALID,134,VALID,0.269055,
Wed Dec 01 18:40:00 2004,VALID,917.847,VALID,0,VALID,100,VALID,0.0509425,VALID,19.3912,VALID,147,VALID,0.499442,
Wed Dec 01 18:41:00 2004,VALID,917.841,VALID,0,VALID,100,VALID,0.0679233,VALID,19.378,VALID,140,VALID,0.349023,
Wed Dec 01 18:42:00 2004,VALID,917.833,VALID,0,VALID,100,VALID,0.0679233,VALID,19.3919,VALID,140,VALID,0.331214,
Wed Dec 01 18:43:00 2004,VALID,917.828,VALID,0.2,VALID,100,VALID,0.0339617,VALID,19.385,VALID,140,VALID,0.25705,
Wed Dec 01 18:44:00 2004,VALID,917.831,VALID,0,VALID,100,VALID,0.0679233,VALID,19.3815,VALID,132,VALID,0.341406,
Wed Dec 01 18:45:00 2004,VALID,917.828,VALID,0.2,VALID,100,VALID,0.0169808,VALID,19.382,VALID,129,VALID,0.138889,
Wed Dec 01 18:46:00 2004,VALID,917.837,VALID,0,VALID,100,VALID,0.0169808,VALID,19.3688,VALID,126,VALID,0.279948,
Wed Dec 01 18:47:00 2004,VALID,917.84,VALID,0,VALID,100,VALID,-0.0509425,VALID,19.3825,VALID,55,VALID,0.417081,
Wed Dec 01 18:48:00 2004,VALID,917.848,VALID,0.2,VALID,100,VALID,-0.0849042,VALID,19.3989,VALID,38,VALID,0.137251,
Wed Dec 01 18:49:00 2004,VALID,917.849,VALID,0,VALID,100,VALID,-0.0679233,VALID,19.4053,VALID,38,VALID,0.0514482,
Wed Dec 01 18:50:00 2004,VALID,917.837,VALID,0,VALID,100,VALID,-0.0679233,VALID,19.412,VALID,38,VALID,0.168555,
Wed Dec 01 18:51:00 2004,VALID,917.843,VALID,0,VALID,100,VALID,-0.0679233,VALID,19.4349,VALID,34,VALID,0.236378,
Wed Dec 01 18:52:00 2004,VALID,917.838,VALID,0.2,VALID,100,VALID,-0.0509425,VALID,19.4215,VALID,32,VALID,0.132617,
Wed Dec 01 18:53:00 2004,VALID,917.837,VALID,0,VALID,100,VALID,-0.0849042,VALID,19.418,VALID,32,VALID,0.0171131,
Wed Dec 01 18:54:00 2004,VALID,917.828,VALID,0,VALID,100,VALID,-0.101885,VALID,19.4247,VALID,32,VALID,0.156605,
Wed Dec 01 18:55:00 2004,VALID,917.828,VALID,0.2,VALID,100,VALID,-0.0849042,VALID,19.389,VALID,31,VALID,0.301082,
Wed Dec 01 18:56:00 2004,VALID,917.817,VALID,0.2,VALID,100,VALID,-0.0849042,VALID,19.3802,VALID,29,VALID,0.296342,
Wed Dec 01 18:57:00 2004,VALID,917.805,VALID,0,VALID,100,VALID,-0.0679233,VALID,19.3768,VALID,16,VALID,0.259811,
Wed Dec 01 18:58:00 2004,VALID,917.81,VALID,0.2,VALID,100,VALID,-0.0679233,VALID,19.38,VALID,8,VALID,0.448438,
Wed Dec 01 18:59:00 2004,VALID,917.813,VALID,0,VALID,100,VALID,-0.0679233,VALID,19.3571,VALID,358,VALID,0.454799,
Wed Dec 01 19:00:00 2004,VALID,917.807,VALID,0.2,VALID,100,VALID,-0.0849042,VALID,19.3479,VALID,357,VALID,0.508194,
Wed Dec 01 19:01:00 2004,VALID,917.812,VALID,0.2,VALID,100,VALID,-0.0849042,VALID,19.3442,VALID,357,VALID,0.295099,
Wed Dec 01 19:02:00 2004,VALID,917.828,VALID,0,VALID,100,VALID,-0.0169808,VALID,19.3534,VALID,357,VALID,0.374814,
Wed Dec 01 19:03:00 2004,VALID,917.825,VALID,0.2,VALID,100,VALID,0,VALID,19.3529,VALID,357,VALID,0.0565476,
Wed Dec 01 19:04:00 2004,VALID,917.813,VALID,0.2,VALID,100,VALID,0.0169808,VALID,19.3495,VALID,357,VALID,0.0250727,
Wed Dec 01 19:05:00 2004,VALID,917.824,VALID,0,VALID,100,VALID,0.0339617,VALID,19.3562,VALID,357,VALID,0.0692472,
Wed Dec 01 19:06:00 2004,VALID,917.816,VALID,0.2,VALID,100,VALID,0,VALID,19.3594,VALID,354,VALID,0.186458,
Wed Dec 01 19:07:00 2004,VALID,917.826,VALID,0,VALID,100,VALID,0,VALID,19.3783,VALID,349,VALID,0.275436,
Wed Dec 01 19:08:00 2004,VALID,917.812,VALID,0.2,VALID,100,VALID,0.0509425,VALID,19.3751,VALID,349,VALID,0.291481,
Wed Dec 01 19:09:00 2004,VALID,917.815,VALID,0,VALID,100,VALID,0,VALID,19.3885,VALID,349,VALID,0.0277158,
Wed Dec 01 19:10:00 2004,VALID,917.802,VALID,0.2,VALID,100,VALID,-0.0169808,VALID,19.4081,VALID,349,VALID,0.0462054,
Wed Dec 01 19:11:00 2004,VALID,917.797,VALID,0,VALID,100,VALID,0,VALID,19.4208,VALID,349,VALID,0,
Wed Dec 01 19:12:00 2004,VALID,917.789,VALID,0,VALID,100,VALID,0,VALID,19.427,VALID,349,VALID,0,
Wed Dec 01 19:13:00 2004,VALID,917.784,VALID,0.2,VALID,100,VALID,0,VALID,19.4237,VALID,349,VALID,0,
Wed Dec 01 19:14:00 2004,VALID,917.778,VALID,0,VALID,100,VALID,0,VALID,19.4237,VALID,349,VALID,0,
Wed Dec 01 19:15:00 2004,VALID,917.767,VALID,0,VALID,100,VALID,0,VALID,19.4205,VALID,349,VALID,0,
Wed Dec 01 19:16:00 2004,VALID,917.774,VALID,0.2,VALID,100,VALID,0,VALID,19.417,VALID,349,VALID,0,
Wed Dec 01 19:17:00 2004,VALID,917.777,VALID,0,VALID,100,VALID,0,VALID,19.4342,VALID,349,VALID,0.120164,
Wed Dec 01 19:18:00 2004,VALID,917.779,VALID,0,VALID,100,VALID,0,VALID,19.4081,VALID,349,VALID,0.452009,
Wed Dec 01 19:19:00 2004,VALID,917.805,VALID,0,VALID,100,VALID,0,VALID,19.382,VALID,349,VALID,0.461128,
Wed Dec 01 19:20:00 2004,VALID,917.81,VALID,0,VALID,100,VALID,0,VALID,19.3917,VALID,349,VALID,0.541109,
Wed Dec 01 19:21:00 2004,VALID,917.807,VALID,0.2,VALID,100,VALID,0,VALID,19.3989,VALID,356,VALID,0.706759,
Wed Dec 01 19:22:00 2004,VALID,917.824,VALID,0,VALID,100,VALID,0.0169808,VALID,19.3753,VALID,3,VALID,0.442645,
Wed Dec 01 19:23:00 2004,VALID,917.821,VALID,0,VALID,100,VALID,0.0169808,VALID,19.3947,VALID,3,VALID,0.239025,
Wed Dec 01 19:24:00 2004,VALID,917.816,VALID,0,VALID,100,VALID,0,VALID,19.415,VALID,3,VALID,0.362153,
Wed Dec 01 19:25:00 2004,VALID,917.813,VALID,0,VALID,100,VALID,0,VALID,19.4272,VALID,7,VALID,0.468387,
Wed Dec 01 19:26:00 2004,VALID,917.811,VALID,0,VALID,100,VALID,0.0169808,VALID,19.4406,VALID,19,VALID,0.770241,
Wed Dec 01 19:27:00 2004,VALID,917.802,VALID,0,VALID,100,VALID,0,VALID,19.46,VALID,22,VALID,0.772461,
Wed Dec 01 19:28:00 2004,VALID,917.807,VALID,0,VALID,100,VALID,0.0339617,VALID,19.4533,VALID,22,VALID,0.40811,
Wed Dec 01 19:29:00 2004,VALID,917.802,VALID,0.2,VALID,100,VALID,0,VALID,19.4759,VALID,22,VALID,0.581676,
Wed Dec 01 19:30:00 2004,VALID,917.792,VALID,0,VALID,100,VALID,0,VALID,19.4786,VALID,19,VALID,0.61044,
Wed Dec 01 19:31:00 2004,VALID,917.795,VALID,0,VALID,100,VALID,0,VALID,19.4493,VALID,355,VALID,0.400724,
Wed Dec 01 19:32:00 2004,VALID,917.786,VALID,0,VALID,100,VALID,0.0169808,VALID,19.4364,VALID,356,VALID,0.202381,
Wed Dec 01 19:33:00 2004,VALID,917.779,VALID,0,VALID,100,VALID,0,VALID,19.424,VALID,356,VALID,0.0930233,
Wed Dec 01 19:34:00 2004,VALID,917.779,VALID,0,VALID,100,VALID,0.0169808,VALID,19.4237,VALID,356,VALID,0,
Wed Dec 01 19:35:00 2004,VALID,917.773,VALID,0,VALID,100,VALID,0.0169808,VALID,19.4364,VALID,356,VALID,0.208984,
Wed Dec 01 19:36:00 2004,VALID,917.757,VALID,0,VALID,100,VALID,0.0169808,VALID,19.4627,VALID,356,VALID,0.294695,
Wed Dec 01 19:37:00 2004,VALID,917.757,VALID,0,VALID,100,VALID,0,VALID,19.505,VALID,356,VALID,0.378084,
Wed Dec 01 19:38:00 2004,VALID,917.743,VALID,0,VALID,100,VALID,0,VALID,19.5075,VALID,356,VALID,0.227865,
Wed Dec 01 19:39:00 2004,VALID,917.741,VALID,0,VALID,100,VALID,0,VALID,19.498,VALID,356,VALID,0.358467,
Wed Dec 01 19:40:00 2004,VALID,917.733,VALID,0,VALID,100,VALID,0,VALID,19.4878,VALID,356,VALID,0.283668,
Wed Dec 01 19:41:00 2004,VALID,917.712,VALID,0.2,VALID,100,VALID,0,VALID,19.469,VALID,349,VALID,0.147436,
Wed Dec 01 19:42:00 2004,VALID,917.712,VALID,0,VALID,100,VALID,0.0339617,VALID,19.4173,VALID,332,VALID,0.314546,
Wed Dec 01 19:43:00 2004,VALID,917.689,VALID,0,VALID,100,VALID,0.0169808,VALID,19.421,VALID,332,VALID,0.0332031,
Wed Dec 01 19:44:00 2004,VALID,917.674,VALID,0,VALID,100,VALID,0,VALID,19.4111,VALID,330,VALID,0.0241642,
Wed Dec 01 19:45:00 2004,VALID,917.67,VALID,0,VALID,100,VALID,0.0169808,VALID,19.4173,VALID,303,VALID,0.419389,
Wed Dec 01 19:46:00 2004,VALID,917.667,VALID,0,VALID,100,VALID,0,VALID,19.4076,VALID,296,VALID,0.124047,
Wed Dec 01 19:47:00 2004,VALID,917.659,VALID,0,VALID,100,VALID,0,VALID,19.4108,VALID,280,VALID,0.283156,
Wed Dec 01 19:48:00 2004,VALID,917.671,VALID,0,VALID,100,VALID,0,VALID,19.4113,VALID,279,VALID,0.0794271,
Wed Dec 01 19:49:00 2004,VALID,917.659,VALID,0,VALID,100,VALID,0,VALID,19.3885,VALID,279,VALID,0,
Wed Dec 01 19:50:00 2004,VALID,917.658,VALID,0,VALID,100,VALID,0,VALID,19.3882,VALID,279,VALID,0,
Wed Dec 01 19:51:00 2004,VALID,917.633,VALID,0.2,VALID,100,VALID,0,VALID,19.3815,VALID,279,VALID,0,
Wed Dec 01 19:52:00 2004,VALID,917.619,VALID,0,VALID,100,VALID,0,VALID,19.4141,VALID,279,VALID,0,
Wed Dec 01 19:53:00 2004,VALID,917.608,VALID,0,VALID,100,VALID,0,VALID,19.4339,VALID,279,VALID,0,
Wed Dec 01 19:54:00 2004,VALID,917.591,VALID,0,VALID,100,VALID,0,VALID,19.4046,VALID,279,VALID,0,
Wed Dec 01 19:55:00 2004,VALID,917.584,VALID,0,VALID,100,VALID,0.0169808,VALID,19.3788,VALID,279,VALID,0,
Wed Dec 01 19:56:00 2004,VALID,917.56,VALID,0,VALID,100,VALID,0.0169808,VALID,19.3952,VALID,279,VALID,0,
Wed Dec 01 19:57:00 2004,VALID,917.551,VALID,0,VALID,100,VALID,0,VALID,19.3852,VALID,279,VALID,0,
Wed Dec 01 19:58:00 2004,VALID,917.544,VALID,0,VALID,100,VALID,0,VALID,19.3954,VALID,279,VALID,0,
Wed Dec 01 19:59:00 2004,VALID,917.535,VALID,0,VALID,100,VALID,0,VALID,19.3922,VALID,279,VALID,0.332508,
Wed Dec 01 20:00:00 2004,VALID,917.522,VALID,0,VALID,100,VALID,0,VALID,19.3723,VALID,279,VALID,0.446801,
Wed Dec 01 20:01:00 2004,VALID,917.516,VALID,0,VALID,100,VALID,0.0169808,VALID,19.3599,VALID,277,VALID,0.310724,
Wed Dec 01 20:02:00 2004,VALID,917.509,VALID,0,VALID,100,VALID,0,VALID,19.3465,VALID,121,VALID,0.59566,
Wed Dec 01 20:03:00 2004,VALID,917.516,VALID,0,VALID,100,VALID,-0.0339617,VALID,19.3311,VALID,94,VALID,0.542799,
Wed Dec 01 20:04:00 2004,VALID,917.528,VALID,0,VALID,100,VALID,-0.0169808,VALID,19.3018,VALID,94,VALID,0.34375,
Wed Dec 01 20:05:00 2004,VALID,917.534,VALID,0.2,VALID,100,VALID,-0.0169808,VALID,19.2821,VALID,94,VALID,0.0783155,
Wed Dec 01 20:06:00 2004,VALID,917.54,VALID,0,VALID,100,VALID,-0.0169808,VALID,19.2988,VALID,94,VALID,0.0339177,
Wed Dec 01 20:07:00 2004,VALID,917.534,VALID,0,VALID,100,VALID,-0.0509425,VALID,19.2958,VALID,94,VALID,0.216016,
Wed Dec 01 20:08:00 2004,VALID,917.537,VALID,0,VALID,100,VALID,-0.0169808,VALID,19.2824,VALID,94,VALID,0.287064,
Wed Dec 01 20:09:00 2004,VALID,917.545,VALID,0,VALID,100,VALID,0,VALID,19.2792,VALID,99,VALID,0.369186,
Wed Dec 01 20:10:00 2004,VALID,917.548,VALID,0,VALID,100,VALID,-0.0339617,VALID,19.2725,VALID,99,VALID,0.184775,
Wed Dec 01 20:11:00 2004,VALID,917.549,VALID,0,VALID,100,VALID,-0.0169808,VALID,19.2764,VALID,99,VALID,0.101749,
Wed Dec 01 20:12:00 2004,VALID,917.545,VALID,0,VALID,100,VALID,0,VALID,19.2692,VALID,99,VALID,0,
Wed Dec 01 20:13:00 2004,VALID,917.542,VALID,0.2,VALID,100,VALID,-0.0169808,VALID,19.2856,VALID,99,VALID,0,
Wed Dec 01 20:14:00 2004,VALID,917.539,VALID,0,VALID,100,VALID,0,VALID,19.2826,VALID,99,VALID,0,
Wed Dec 01 20:15:00 2004,VALID,917.533,VALID,0,VALID,100,VALID,0,VALID,19.2794,VALID,99,VALID,0.206473,
Wed Dec 01 20:16:00 2004,VALID,917.542,VALID,0,VALID,100,VALID,0,VALID,19.2625,VALID,99,VALID,0.184775,
Wed Dec 01 20:17:00 2004,VALID,917.535,VALID,0,VALID,100,VALID,-0.0169808,VALID,19.2695,VALID,99,VALID,0.129724,
Wed Dec 01 20:18:00 2004,VALID,917.518,VALID,0,VALID,100,VALID,0,VALID,19.2695,VALID,99,VALID,0.315341,
Wed Dec 01 20:19:00 2004,VALID,917.512,VALID,0,VALID,100,VALID,0,VALID,19.263,VALID,112,VALID,0.39968,
Wed Dec 01 20:20:00 2004,VALID,917.499,VALID,0.2,VALID,100,VALID,-0.0169808,VALID,19.2727,VALID,118,VALID,0.371652,
Wed Dec 01 20:21:00 2004,VALID,917.485,VALID,0,VALID,100,VALID,-0.0169808,VALID,19.2729,VALID,165,VALID,0.513338,
Wed Dec 01 20:22:00 2004,VALID,917.476,VALID,0,VALID,100,VALID,-0.0509425,VALID,19.2764,VALID,164,VALID,0.664453,
Wed Dec 01 20:23:00 2004,VALID,917.463,VALID,0,VALID,100,VALID,-0.0339617,VALID,19.26,VALID,164,VALID,0.541159,
Wed Dec 01 20:24:00 2004,VALID,917.475,VALID,0,VALID,100,VALID,-0.0339617,VALID,19.2672,VALID,164,VALID,0.270167,
Wed Dec 01 20:25:00 2004,VALID,917.467,VALID,0,VALID,100,VALID,-0.0339617,VALID,19.2501,VALID,160,VALID,0.298473,
Wed Dec 01 20:26:00 2004,VALID,917.488,VALID,0,VALID,100,VALID,-0.0339617,VALID,19.2466,VALID,145,VALID,0.409624,
Wed Dec 01 20:27:00 2004,VALID,917.49,VALID,0,VALID,100,VALID,0,VALID,19.2533,VALID,138,VALID,0.322674,
Wed Dec 01 20:28:00 2004,VALID,917.5,VALID,0.2,VALID,100,VALID,-0.0339617,VALID,19.2469,VALID,138,VALID,0.202934,
Wed Dec 01 20:29:00 2004,VALID,917.497,VALID,0,VALID,100,VALID,0,VALID,19.2436,VALID,138,VALID,0.0251116,
Wed Dec 01 20:30:00 2004,VALID,917.515,VALID,0,VALID,100,VALID,0,VALID,19.2471,VALID,138,VALID,0.0167683,
Wed Dec 01 20:31:00 2004,VALID,917.533,VALID,0,VALID,100,VALID,-0.0169808,VALID,19.2503,VALID,138,VALID,0.0304878,
Wed Dec 01 20:32:00 2004,VALID,917.541,VALID,0.2,VALID,100,VALID,-0.0169808,VALID,19.2792,VALID,138,VALID,0.00228659,
Wed Dec 01 20:33:00 2004,VALID,917.57,VALID,0,VALID,100,VALID,0,VALID,19.2921,VALID,138,VALID,0.0130814,
Wed Dec 01 20:34:00 2004,VALID,917.584,VALID,0,VALID,100,VALID,-0.0169808,VALID,19.2985,VALID,138,VALID,0,